Fremont, MI

8:48 PM EDT on October 16, 2019 (GMT -0400)
Fremont

Weather History for KFFX - August, 2019

Change the Weather History Date:

Wednesday, August 14, 2019

  Actual Average (WUND) Record (WUND)
Temperature  
Mean Temperature 67 °F -  
Max Temperature 73 °F - - (-1)
Min Temperature 61 °F - - (-1)
Cooling Degree Days 2    
Growing Degree Days 17 (Base 50)    
Moisture  
Dew Point 53 °F    
Average Humidity 62    
Maximum Humidity 79    
Minimum Humidity 48    
Precipitation  
Precipitation 0.00 in - - ()
Sea Level Pressure  
Sea Level Pressure 29.97 in    
Wind  
Wind Speed 5 mph (East)    
Max Wind Speed 12 mph    
Max Gust Speed 16 mph    
Visibility 10 miles    
Events Rain    
Averages and records for this station are not official NWS values.
T = Trace of Precipitation, MM = Missing Value Source: NWS Daily Summary

Daily Weather History Graph

Daily Weather History Graph

Search for Another Location

Airport or City:

Astronomy

Aug. 14, 2019 Rise Set
Actual Time 6:47 AM EDT 8:48 PM EDT
Civil Twilight 6:16 AM EDT 9:19 PM EDT
Nautical Twilight 5:38 AM EDT 9:57 PM EDT
Astronomical Twilight 4:56 AM EDT 10:39 PM EDT
Moon 8:44 PM EDT (8/14) 5:41 AM EDT (8/14)
Length of Visible Light 15h 03m
Length of Day
14h 01m
Waxing Gibbous, 99% of the Moon is Illuminated
Aug 14
Waxing Gibbous
Aug 15
Full
Aug 23
Last Quarter
Aug 30
New
Sep 5
First Quarter

Hourly Weather History & Observations

Time (EDT) Temp. Dew Point Humidity Pressure Visibility Wind Dir Wind Speed Gust Speed Precip Events Conditions
12:19 AM 69.3 °F 56.3 °F 63% 29.92 in 10.0 mi East 3.5 mph - N/A   Overcast
12:37 AM 69.6 °F 54.7 °F 59% 29.93 in 10.0 mi East 5.8 mph - N/A   Overcast
12:55 AM 69.3 °F 54.0 °F 58% 29.93 in 10.0 mi ESE 5.8 mph - N/A   Overcast
1:15 AM 68.0 °F 53.2 °F 59% 29.93 in 10.0 mi ESE 3.5 mph - N/A   Mostly Cloudy
1:16 AM 68.0 °F 53.2 °F 59% 29.93 in 10.0 mi ESE 4.6 mph - N/A   Mostly Cloudy
1:35 AM 68.0 °F 52.3 °F 57% 29.93 in 10.0 mi East 5.8 mph - N/A   Overcast
1:39 AM 67.8 °F 52.0 °F 57% 29.93 in 10.0 mi East 3.5 mph - N/A   Overcast
1:58 AM 67.8 °F 50.2 °F 53% 29.94 in 10.0 mi East 4.6 mph - N/A   Overcast
2:16 AM 68.0 °F 48.6 °F 50% 29.93 in 10.0 mi ESE 4.6 mph - N/A   Overcast
2:35 AM 66.9 °F 48.6 °F 52% 29.93 in 10.0 mi East 3.5 mph - N/A   Mostly Cloudy
2:55 AM 65.8 °F 48.4 °F 53% 29.93 in 10.0 mi Calm Calm - N/A   Mostly Cloudy
3:19 AM 65.5 °F 48.9 °F 55% 29.94 in 10.0 mi SE 3.5 mph - N/A   Mostly Cloudy
3:37 AM 65.3 °F 48.7 °F 55% 29.94 in 10.0 mi Calm Calm - N/A   Mostly Cloudy
3:55 AM 65.3 °F 48.4 °F 54% 29.95 in 10.0 mi Calm Calm - N/A   Overcast
4:15 AM 64.2 °F 50.2 °F 60% 29.95 in 10.0 mi East 4.6 mph - N/A   Mostly Cloudy
4:35 AM 64.4 °F 51.3 °F 62% 29.95 in 10.0 mi ENE 4.6 mph - N/A   Overcast
4:57 AM 64.4 °F 49.8 °F 59% 29.95 in 10.0 mi East 6.9 mph - N/A   Mostly Cloudy
5:16 AM 64.0 °F 49.3 °F 59% 29.95 in 10.0 mi East 5.8 mph - N/A   Scattered Clouds
5:35 AM 63.5 °F 50.0 °F 61% 29.95 in 10.0 mi East 4.6 mph - N/A   Mostly Cloudy
5:36 AM 63.5 °F 50.0 °F 61% 29.95 in 10.0 mi East 4.6 mph - N/A   Mostly Cloudy
5:55 AM 62.8 °F 50.2 °F 63% 29.95 in 10.0 mi East 5.8 mph - N/A   Mostly Cloudy
5:56 AM 62.8 °F 50.2 °F 63% 29.95 in 10.0 mi East 5.8 mph - N/A   Mostly Cloudy
6:19 AM 62.6 °F 50.4 °F 64% 29.95 in 10.0 mi East 6.9 mph - N/A   Clear
6:37 AM 61.9 °F 50.9 °F 67% 29.95 in 10.0 mi ENE 5.8 mph - N/A   Clear
6:55 AM 61.9 °F 51.6 °F 69% 29.96 in 10.0 mi East 4.6 mph - N/A   Clear
7:15 AM 62.4 °F 51.4 °F 67% 29.97 in 10.0 mi NE 4.6 mph - N/A   Clear
7:16 AM 62.4 °F 51.4 °F 67% 29.97 in 10.0 mi NE 5.8 mph - N/A   Clear
7:35 AM 63.0 °F 51.3 °F 66% 29.98 in 10.0 mi ENE 5.8 mph - N/A   Mostly Cloudy
7:40 AM 63.0 °F 51.1 °F 65% 29.97 in 10.0 mi East 8.1 mph - N/A   Mostly Cloudy
7:58 AM 63.1 °F 51.1 °F 65% 29.97 in 10.0 mi East 8.1 mph - N/A   Scattered Clouds
8:16 AM 63.5 °F 51.4 °F 65% 29.98 in 10.0 mi East 6.9 mph - N/A   Scattered Clouds
8:35 AM 64.4 °F 51.1 °F 62% 29.98 in 10.0 mi ENE 9.2 mph - N/A   Scattered Clouds
8:55 AM 65.3 °F 50.7 °F 59% 29.98 in 10.0 mi East 6.9 mph - N/A   Mostly Cloudy
9:19 AM 66.2 °F 50.5 °F 57% 29.98 in 10.0 mi East 5.8 mph - N/A   Mostly Cloudy
9:37 AM 67.1 °F 51.3 °F 57% 29.97 in 10.0 mi East 4.6 mph - N/A   Mostly Cloudy
9:56 AM 67.1 °F 51.4 °F 57% 29.97 in 10.0 mi East 8.1 mph - N/A   Overcast
10:15 AM 67.1 °F 52.2 °F 59% 29.98 in 10.0 mi East 4.6 mph - N/A   Overcast
10:16 AM 67.1 °F 52.2 °F 59% 29.98 in 10.0 mi East 3.5 mph - N/A   Overcast
10:35 AM 67.1 °F 52.9 °F 60% 29.98 in 10.0 mi East 8.1 mph - N/A   Overcast
10:57 AM 68.0 °F 52.9 °F 58% 29.98 in 10.0 mi East 5.8 mph - N/A   Overcast
11:16 AM 68.2 °F 52.9 °F 58% 29.98 in 10.0 mi East 9.2 mph - N/A   Mostly Cloudy
11:35 AM 68.9 °F 53.1 °F 57% 29.99 in 10.0 mi ESE 6.9 mph - N/A   Overcast
11:36 AM 68.9 °F 53.2 °F 57% 29.99 in 10.0 mi East 8.1 mph - N/A   Overcast
11:55 AM 68.5 °F 54.0 °F 60% 29.99 in 10.0 mi ESE 8.1 mph - N/A   Overcast
11:56 AM 68.5 °F 54.0 °F 60% 29.99 in 10.0 mi East 9.2 mph - N/A   Overcast
12:37 PM 69.6 °F 53.2 °F 56% 29.99 in 10.0 mi ENE 9.2 mph - N/A   Overcast
12:55 PM 70.7 °F 53.1 °F 54% 29.99 in 10.0 mi ENE 10.4 mph - N/A   Overcast
1:15 PM 70.5 °F 51.4 °F 51% 29.98 in 10.0 mi East 9.2 mph - N/A   Overcast
1:35 PM 72.1 °F 53.2 °F 51% 29.98 in 10.0 mi East 8.1 mph - N/A   Overcast
1:40 PM 72.0 °F 53.8 °F 53% 29.98 in 10.0 mi East 9.2 mph - N/A   Mostly Cloudy
1:58 PM 73.0 °F 55.0 °F 53% 29.98 in 10.0 mi East 9.2 mph 16.1 mph N/A   Mostly Cloudy
2:16 PM 72.0 °F 53.6 °F 52% 29.98 in 10.0 mi East 11.5 mph 16.1 mph N/A   Scattered Clouds
2:35 PM 72.0 °F 52.7 °F 51% 29.98 in 10.0 mi East 8.1 mph - N/A   Mostly Cloudy
2:36 PM 72.1 °F 52.9 °F 51% 29.98 in 10.0 mi East 6.9 mph - N/A   Mostly Cloudy
2:55 PM 72.7 °F 52.3 °F 49% 29.98 in 10.0 mi ESE 6.9 mph - N/A   Overcast
2:56 PM 72.7 °F 52.2 °F 48% 29.98 in 10.0 mi ESE 6.9 mph - N/A   Overcast
3:19 PM 72.0 °F 53.6 °F 52% 29.98 in 10.0 mi SE 4.6 mph - N/A   Overcast
3:36 PM 71.6 °F 54.0 °F 54% 29.98 in 10.0 mi ESE 5.8 mph - N/A   Overcast
3:55 PM 71.2 °F 54.0 °F 54% 29.98 in 10.0 mi ESE 3.5 mph - N/A Rain Rain
4:15 PM 71.1 °F 55.4 °F 58% 29.98 in 10.0 mi East 3.5 mph - N/A   Drizzle
4:39 PM 67.5 °F 55.4 °F 65% 29.98 in 10.0 mi East 5.8 mph - N/A   Drizzle
4:57 PM 68.5 °F 55.4 °F 63% 29.98 in 10.0 mi East 8.1 mph - N/A   Overcast
5:15 PM 68.9 °F 58.1 °F 68% 29.98 in 10.0 mi East 5.8 mph - N/A   Overcast
5:16 PM 68.9 °F 58.1 °F 68% 29.98 in 10.0 mi East 5.8 mph - N/A   Overcast
5:35 PM 69.4 °F 57.9 °F 67% 29.98 in 10.0 mi East 6.9 mph - N/A   Overcast
5:59 PM 69.1 °F 55.0 °F 61% 29.98 in 10.0 mi East 6.9 mph - N/A   Overcast
6:17 PM 68.9 °F 56.3 °F 64% 29.98 in 10.0 mi East 6.9 mph - N/A   Overcast
6:35 PM 68.7 °F 55.8 °F 63% 29.97 in 10.0 mi ENE 5.8 mph - N/A   Overcast
6:36 PM 68.7 °F 55.8 °F 63% 29.97 in 10.0 mi NE 5.8 mph - N/A   Overcast
6:55 PM 69.4 °F 54.7 °F 59% 29.97 in 10.0 mi ENE 5.8 mph - N/A   Overcast
6:56 PM 69.4 °F 54.7 °F 59% 29.97 in 10.0 mi ENE 5.8 mph - N/A   Overcast
7:15 PM 68.9 °F 55.6 °F 62% 29.97 in 10.0 mi NNE 5.8 mph - N/A   Overcast
7:38 PM 68.2 °F 57.2 °F 68% 29.97 in 10.0 mi NNE 4.6 mph - N/A   Overcast
7:56 PM 68.0 °F 58.1 °F 71% 29.97 in 10.0 mi ENE 4.6 mph - N/A   Overcast
8:15 PM 68.0 °F 58.1 °F 71% 29.97 in 10.0 mi NE 4.6 mph - N/A   Overcast
8:16 PM 68.0 °F 58.1 °F 71% 29.97 in 10.0 mi NE 5.8 mph - N/A   Overcast
8:35 PM 68.0 °F 58.1 °F 71% 29.97 in 10.0 mi ENE 5.8 mph - N/A   Overcast
8:36 PM 68.0 °F 57.9 °F 70% 29.97 in 10.0 mi ENE 5.8 mph - N/A   Overcast
8:59 PM 68.0 °F 56.8 °F 67% 29.97 in 10.0 mi NNE 5.8 mph - N/A   Overcast
9:17 PM 66.0 °F 58.3 °F 76% 29.98 in 10.0 mi NE 6.9 mph - N/A   Drizzle
9:35 PM 66.4 °F 58.1 °F 75% 29.98 in 10.0 mi ENE 6.9 mph - N/A   Overcast
9:55 PM 66.2 °F 57.2 °F 73% 29.99 in 10.0 mi ENE 9.2 mph - N/A   Overcast
10:15 PM 65.8 °F 55.8 °F 70% 29.99 in 10.0 mi East 8.1 mph - N/A   Overcast
10:20 PM 65.8 °F 55.8 °F 70% 29.99 in 10.0 mi East 9.2 mph - N/A   Overcast
10:38 PM 65.1 °F 55.8 °F 72% 30.00 in 10.0 mi ENE 6.9 mph - N/A   Overcast
10:56 PM 64.4 °F 56.5 °F 75% 30.00 in 10.0 mi East 5.8 mph - N/A Rain Light Rain
11:15 PM 64.6 °F 56.3 °F 74% 30.00 in 10.0 mi Calm Calm - N/A   Overcast
11:35 PM 64.4 °F 56.7 °F 76% 30.00 in 10.0 mi East 3.5 mph - N/A   Overcast
11:36 PM 64.4 °F 56.7 °F 76% 30.00 in 10.0 mi East 4.6 mph - N/A   Overcast
11:59 PM 64.0 °F 57.4 °F 79% 30.01 in 10.0 mi Calm Calm - N/A   Mostly Cloudy